Date String (YYYY-MM-DD hh:mm:ss) UTC,Instrument flags,Ambient pressure (hPa),Sample flow (lpm),Bypass flow (lpm),Sample temperature (°C),Ambient temperature (°C),ASC tube jacket temperature (°C),LED temperature (°C),Box temperature (°C),Sample RH (%),Span deviation,Mass concentration (μg/m³),Mass concentration (μg/m³),Mass concentration (μg/m³)
DateTimeUTC,F1_M11,P_M11,Q1_M11,Q2_M11,T1_M11,T2_M11,T3_M11,T4_M11,T5_M11,U1_M11,ZSPAN_M11,X0_M11,X2_M11,X1_M11
2021-12-09 14:00:00,,0814.5,5.00,0.00,22.4,21.7,00.0,31.4,24.2,15.6,0000.0,0001.40,0000.59,0000.38
2021-12-09 14:01:00,,0814.6,4.99,0.00,22.4,21.7,00.0,31.4,24.2,15.6,0000.0,0001.38,0000.60,0000.39
2021-12-09 14:02:00,,0814.6,5.01,0.00,22.4,21.7,00.0,31.4,24.2,15.6,0000.0,0001.34,0000.60,0000.39
2021-12-09 14:03:00,,0814.8,5.00,0.00,22.4,21.7,00.0,31.4,24.2,15.4,0000.0,0001.34,0000.61,0000.39
2021-12-09 14:04:00,,0814.5,4.99,0.00,22.4,21.7,00.0,31.4,24.1,15.3,0000.0,0001.35,0000.62,0000.39
2021-12-09 14:05:00,,0814.6,5.02,0.00,22.4,21.7,00.0,31.4,24.2,15.5,0000.0,0001.36,0000.62,0000.40
2021-12-09 14:06:00,,0814.7,4.99,0.00,22.4,21.7,00.0,31.4,24.2,15.5,0000.0,0001.02,0000.60,0000.40
2021-12-09 14:07:00,,0814.5,5.01,0.00,22.4,21.8,00.0,31.4,24.2,15.5,0000.0,0000.93,0000.60,0000.40
2021-12-09 14:08:00,,0814.6,5.01,0.00,22.4,21.8,00.0,31.4,24.2,15.4,0000.0,0000.91,0000.59,0000.39
2021-12-09 14:09:00,,0814.5,4.99,0.00,22.4,21.8,00.0,31.4,24.2,15.3,0000.0,0000.87,0000.57,0000.39
2021-12-09 14:10:00,,0814.4,5.01,0.00,22.4,21.8,00.0,31.4,24.2,15.2,0000.0,0000.82,0000.56,0000.39
2021-12-09 14:11:00,,0814.2,5.01,0.00,22.4,21.8,00.0,31.4,24.2,15.2,0000.0,0000.93,0000.59,0000.39
2021-12-09 14:12:00,,0814.4,5.00,0.00,22.4,21.8,00.0,31.4,24.2,15.0,0000.0,0000.98,0000.59,0000.38
2021-12-09 14:13:00,,0814.4,4.99,0.00,22.4,21.8,00.0,31.4,24.2,15.2,0000.0,0000.98,0000.58,0000.38
2021-12-09 14:14:00,,0814.3,5.00,0.00,22.4,21.8,00.0,31.4,24.2,15.5,0000.0,0001.04,0000.58,0000.38
2021-12-09 14:15:00,,0814.5,5.00,0.00,22.4,21.8,00.0,31.4,24.2,15.6,0000.0,0001.05,0000.57,0000.38
2021-12-09 14:16:00,,0814.4,5.00,0.00,22.4,21.8,00.0,31.4,24.2,15.6,0000.0,0001.14,0000.59,0000.38
2021-12-09 14:17:00,,0814.4,5.01,0.00,22.4,21.8,00.0,31.4,24.2,15.5,0000.0,0001.23,0000.61,0000.38
2021-12-09 14:18:00,,0814.4,5.00,0.00,22.4,21.8,00.0,31.4,24.2,15.5,0000.0,0001.23,0000.62,0000.38
2021-12-09 14:19:00,,0814.5,5.00,0.00,22.4,21.8,00.0,31.4,24.2,15.6,0000.0,0001.21,0000.61,0000.37
2021-12-09 14:20:00,,0814.6,4.99,0.00,22.4,21.7,00.0,31.4,24.1,15.6,0000.0,0001.27,0000.63,0000.38
2021-12-09 14:21:00,,0814.7,5.02,0.00,22.4,21.7,00.0,31.4,24.1,15.6,0000.0,0001.35,0000.65,0000.38
2021-12-09 14:22:00,,0814.6,4.99,0.00,22.4,21.7,00.0,31.4,24.1,15.6,0000.0,0001.52,0000.61,0000.38
2021-12-09 14:23:00,,0814.4,5.01,0.00,22.3,21.7,00.0,31.4,24.1,15.6,0000.0,0001.62,0000.58,0000.38
2021-12-09 14:24:00,,0814.4,4.99,0.00,22.3,21.6,00.0,31.4,24.1,15.6,0000.0,0001.63,0000.58,0000.37
2021-12-09 14:25:00,,0814.4,5.00,0.00,22.3,21.6,00.0,31.4,24.1,15.6,0000.0,0001.65,0000.60,0000.37
2021-12-09 14:26:00,,0814.4,5.02,0.00,22.3,21.7,00.0,31.4,24.1,15.6,0000.0,0002.01,0000.61,0000.38
2021-12-09 14:27:00,,0814.4,5.00,0.00,22.4,21.7,00.0,31.4,24.1,15.6,0000.0,0002.28,0000.63,0000.39
2021-12-09 14:28:00,,0814.4,4.99,0.00,22.4,21.7,00.0,31.4,24.2,15.6,0000.0,0002.31,0000.63,0000.40
2021-12-09 14:29:00,,0814.4,5.00,0.00,22.4,21.7,00.0,31.4,24.2,15.5,0000.0,0002.87,0000.64,0000.41
2021-12-09 14:30:00,,0814.5,5.00,0.00,22.4,21.8,00.0,31.4,24.2,15.5,0000.0,0003.03,0000.68,0000.42
2021-12-09 14:31:00,,0814.4,5.00,0.00,22.4,21.8,00.0,31.4,24.2,15.4,0000.0,0003.10,0000.70,0000.42
2021-12-09 14:32:00,,0814.7,5.00,0.00,22.4,21.8,00.0,31.4,24.2,15.5,0000.0,0003.21,0000.73,0000.42
2021-12-09 14:33:00,,0814.7,5.00,0.00,22.4,21.8,00.0,31.4,24.2,15.5,0000.0,0002.97,0000.74,0000.43
2021-12-09 14:34:00,,0814.8,5.00,0.00,22.4,21.8,00.0,31.4,24.2,15.4,0000.0,0002.81,0000.76,0000.43
2021-12-09 14:35:00,,0814.9,4.99,0.00,22.5,21.8,00.0,31.4,24.2,15.5,0000.0,0002.78,0000.75,0000.43
2021-12-09 14:36:00,,0815.1,5.01,0.00,22.5,21.9,00.0,31.4,24.2,15.4,0000.0,0002.73,0000.74,0000.43
2021-12-09 14:37:00,,0815.1,5.00,0.00,22.5,21.9,00.0,31.4,24.3,15.5,0000.0,0002.84,0000.80,0000.43
2021-12-09 14:38:00,,0814.9,5.00,0.00,22.5,21.9,00.0,31.4,24.3,15.5,0000.0,0002.80,0000.79,0000.42
2021-12-09 14:39:00,,0815.0,5.00,0.00,22.5,21.9,00.0,31.4,24.3,15.5,0000.0,0002.73,0000.81,0000.42
2021-12-09 14:40:00,,0814.8,5.01,0.00,22.5,21.9,00.0,31.4,24.3,15.4,0000.0,0002.21,0000.79,0000.41
2021-12-09 14:41:00,,0814.7,5.00,0.00,22.5,21.9,00.0,31.4,24.3,15.3,0000.0,0002.07,0000.75,0000.41
2021-12-09 14:42:00,,0814.7,5.01,0.00,22.5,21.9,00.0,31.5,24.3,15.3,0000.0,0002.03,0000.73,0000.41
2021-12-09 14:43:00,,0814.9,5.00,0.00,22.6,21.9,00.0,31.5,24.3,15.3,0000.0,0001.92,0000.70,0000.40
2021-12-09 14:44:00,,0815.1,4.99,0.00,22.6,21.9,00.0,31.5,24.3,15.3,0000.0,0001.96,0000.70,0000.39
2021-12-09 14:45:00,,0815.1,5.01,0.00,22.6,21.9,00.0,31.5,24.4,15.2,0000.0,0001.95,0000.71,0000.39
2021-12-09 14:46:00,,0815.1,5.01,0.00,22.6,22.0,00.0,31.5,24.4,15.2,0000.0,0002.04,0000.73,0000.39
2021-12-09 14:47:00,,0815.1,4.99,0.00,22.6,22.0,00.0,31.5,24.4,15.1,0000.0,0002.07,0000.74,0000.40
2021-12-09 14:48:00,,0814.8,4.99,0.00,22.6,22.0,00.0,31.5,24.4,15.2,0000.0,0001.63,0000.68,0000.40
2021-12-09 14:49:00,,0814.9,5.01,0.00,22.6,22.0,00.0,31.5,24.4,15.2,0000.0,0001.37,0000.69,0000.42
2021-12-09 14:50:00,,0814.9,5.00,0.00,22.6,22.0,00.0,31.5,24.4,15.1,0000.0,0001.36,0000.70,0000.43
2021-12-09 14:51:00,,0814.6,4.99,0.00,22.7,22.0,00.0,31.6,24.5,15.1,0000.0,0001.44,0000.73,0000.44
2021-12-09 14:52:00,,0814.9,5.00,0.00,22.7,22.1,00.0,31.6,24.5,15.1,0000.0,0001.55,0000.77,0000.45
2021-12-09 14:53:00,,0815.1,5.01,0.00,22.7,22.1,00.0,31.6,24.5,15.0,0000.0,0001.50,0000.77,0000.46
2021-12-09 14:54:00,,0814.8,4.98,0.00,22.7,22.1,00.0,31.6,24.5,15.0,0000.0,0001.49,0000.77,0000.47
2021-12-09 14:55:00,,0814.9,5.00,0.00,22.7,22.1,00.0,31.6,24.6,14.8,0000.0,0002.13,0000.78,0000.49
2021-12-09 14:56:00,,0814.9,5.01,0.00,22.7,22.1,00.0,31.6,24.5,15.0,0000.0,0002.75,0000.82,0000.52
2021-12-09 14:57:00,,0814.9,4.98,0.00,22.7,22.1,00.0,31.6,24.5,14.9,0000.0,0002.77,0000.82,0000.52
2021-12-09 14:58:00,,0814.9,5.00,0.00,22.7,22.1,00.0,31.6,24.5,15.2,0000.0,0002.74,0000.82,0000.52
2021-12-09 14:59:00,,0814.9,5.01,0.00,22.7,22.1,00.0,31.6,24.5,15.3,0000.0,0002.70,0000.80,0000.53
